Flag for Eritrea Weather past 2 weeks in Teseney, Eritrea

Now
72 °F

Clear.


Feels Like: 77 °F
Forecast: 68 / 96 °F
Wind: 8 mph from North

Location: Khartoum Airport

Current Time: Dec 19, 2014 at 5:41:49 AM

Latest Report: Dec 19, 2014 at 5:00 AM


Visibility: 10 mi

Pressure: 29.92 "Hg

Humidity: 38%

Dew point: 45 °F

Location of TeseneyLocation

Historic Weather in Teseney — Graph

°F

Teseney temperature yesterday

Maximum temperature yesterday: 91 °F (at 4:00 PM)
Minimum temperature yesterday: 70 °F (at 7:00 AM)
Average temperature yesterday: 80 °F

Past Weeks' High & Low Weather Summary

 TemperatureHumidityPressure
High99 °F (Dec 11, 2:00 PM)44% (Dec 5, 6:00 AM)30.04 "Hg (Dec 5, 6:00 AM)
Low64 °F (Dec 15, 8:00 AM)10% (Dec 11, 3:00 PM)29.77 "Hg (Dec 8, 4:30 PM)
Average82 °F26%29.92 "Hg
* Reported Dec 4 4:00 AM — Dec 19 4:30 AM, Teseney, Weather by CustomWeather, © 2014

Note: Actual official high and low records may vary slightly from our data, if they occured in-between our weather recording intervals... More about our weather records

Advertising

Teseney weather history for previous 24 hours

 ConditionsComfort  
Time TempWeatherWind HumidityBarometerVisibility
4:30 AM
Dec 19
N/AClear.8 mphN/A29.92 "Hg10 mi
4:00 AM73 °FClear.10 mph33%29.92 "Hg10 mi
3:30 AMN/AClear.10 mphN/A29.95 "Hg10 mi
3:00 AM75 °FClear.9 mph29%29.95 "Hg10 mi
2:30 AMN/AClear.12 mphN/A29.95 "Hg10 mi
2:00 AM77 °FClear.12 mph30%29.95 "Hg10 mi
1:30 AMN/AClear.12 mphN/A29.95 "Hg10 mi
1:00 AM77 °FClear.9 mph30%29.95 "Hg10 mi
12:30 AMN/AClear.7 mphN/A29.95 "Hg10 mi
11:30 PM
Dec 18
N/AClear.5 mphN/A29.95 "Hg10 mi
11:00 PM79 °FClear.3 mph32%29.98 "Hg10 mi
10:00 PM81 °FClear.5 mph30%29.98 "Hg10 mi
9:30 PMN/AClear.5 mphN/A29.95 "Hg10 mi
9:00 PM84 °FClear.5 mph27%29.95 "Hg10 mi
8:30 PMN/AClear.5 mphN/A29.95 "Hg10 mi
8:00 PM84 °FClear.6 mph25%29.95 "Hg10 mi
7:30 PMN/AClear.5 mphN/A29.92 "Hg10 mi
7:00 PM88 °FClear.5 mph24%29.92 "Hg10 mi
6:30 PMN/AClear.5 mphN/A29.92 "Hg10 mi
6:00 PM90 °FSunny.5 mph17%29.92 "Hg10 mi
5:30 PMN/ASunny.7 mphN/A29.89 "Hg10 mi
5:00 PM91 °FSunny.5 mph18%29.89 "Hg10 mi
4:30 PMN/ASunny.3 mphN/A29.89 "Hg10 mi
4:00 PM91 °FSunny.3 mph18%29.89 "Hg10 mi
3:00 PM90 °FSunny.5 mph17%29.89 "Hg10 mi
2:30 PMN/ASunny.6 mphN/A29.92 "Hg10 mi
1:30 PMN/ASunny.10 mphN/A29.95 "Hg10 mi
1:00 PM88 °FPleasantly warm.N/A19%29.95 "Hg0 mi
12:30 PMN/ASunny.9 mphN/A29.98 "Hg10 mi
12:00 PM86 °FSunny.9 mph22%30.01 "Hg10 mi
11:30 AMN/ASunny.9 mphN/A30.01 "Hg10 mi
11:00 AM81 °FSunny.9 mph28%30.04 "Hg10 mi
10:30 AMN/ASunny.7 mphN/A30.01 "Hg10 mi
10:00 AM75 °FSunny.N/A34%30.01 "Hg10 mi
9:30 AMN/ASunny.7 mphN/A30.04 "Hg10 mi
9:00 AM73 °FSunny.9 mph33%30.01 "Hg10 mi
8:00 AM70 °FSunny.6 mph35%29.98 "Hg10 mi
7:00 AM70 °FClear.10 mph35%29.98 "Hg10 mi
6:00 AM72 °FClear.6 mph38%29.95 "Hg10 mi
5:30 AMN/AClear.8 mphN/A29.95 "Hg10 mi
5:00 AM72 °FClear.5 mph38%29.95 "Hg10 mi
Weather by CustomWeather, © 2014

See weather overviewHow to use our weather pages